Location: Newark
(43.4306°N, 0.3089°E)
Time: 16:02:31
(UTC+00:00)

SR - Pass Details

Date: 27 August 2019
Orbit: 576 x 880 km, 66.7° (Epoch: 22 September)

Event Time Altitude Azimuth Distance (km) Brightness Sun altitude
Rises 19:25:59 0° 332° (NNW) 3,273 ? -8.2°
Reaches altitude 10° 19:28:24 10° 338° (NNW) 2,385 ? -8.6°
Maximum altitude 19:33:48 50° 53° (NE) 1,061 ? -9.5°
Enters shadow 19:38:58 12° 127° (SE) 2,337 ? -10.4°
